Regional Weather Roundup
Issued by NWS

Home | Current Version | Previous Version | Text Only | Print | Product List | Glossary Off
Versions: 1 2 3 4 5 6 7 8 9 10 11 12 13 14 15 16 17 18 19 20 21 22 23 24 25 26 27 28 29 30 31 32 33 34 35 36 37 38 39 40 41 42 43 44 45 46 47 48 49 50

000
ASUS43 KFSD 091602
RWRSD

WEATHER ROUNDUP FOR SOUTH DAKOTA
NATIONAL WEATHER SERVICE SIOUX FALLS SD
1000 AM CST FRI DEC 09 2016

NOTE: "FAIR" INDICATES FEW OR NO CLOUDS BELOW 12,000 FEET WITH NO
SIGNIFICANT WEATHER AND/OR OBSTRUCTIONS TO VISIBILITY.


SDZ001>005-009-010-012>017-091700-
NORTHWEST AND NORTH CENTRAL SOUTH DAKOTA

CITY           SKY/WX    TMP DP  RH WIND       PRES   REMARKS
BUFFALO          N/A     -2  -7  79 E6        30.30R WCI -14
FAITH            N/A     -1  -7  75 NE12      30.43R WCI -18
MOBRIDGE       CLOUDY    -2  -8  76 N3        30.50F
$$

SDZ012>016-024>037-041>051-057-063-072>074-091700-
SOUTHWEST AND SOUTH CENTRAL SOUTH DAKOTA

CITY           SKY/WX    TMP DP  RH WIND       PRES   REMARKS
RAPID CTY ARPT FLURRIES   0  -5  79 N12       30.33S WCI -17
PIERRE         CLOUDY     2  -3  80 E9        30.50F WCI -13
CUSTER         CLOUDY     8   2  76 VRB3      30.05S
ELLSWORTH AFB  FLURRIES  -1  -6  82 N9        30.32S WCI -17
PHILIP         LGT SNOW   2  -1  88 E12       30.44R FOG     WCI -15
PINE RIDGE     CLOUDY     4   0  83 NW3       30.26R
SPEARFISH      FAIR      -4  -9  77 N6        30.27R WCI -16
WINNER         CLOUDY     7   3  84 E10       30.46R WCI  -8
$$

SDZ004>011-016>023-039-040-091700-
NORTHEAST SOUTH DAKOTA

CITY           SKY/WX    TMP DP  RH WIND       PRES   REMARKS
ABERDEEN       PTSUNNY    1  -8  66 MISG      30.60R
WATERTOWN      CLOUDY    -1  -5  82 W9        30.53R WCI -16
SISSETON         N/A      3  -4  72 NW10      30.58R WCI -12
$$

SDZ017-020-022-023-036>040-048>070-091700-
SOUTHEAST SOUTH DAKOTA

CITY           SKY/WX    TMP DP  RH WIND       PRES   REMARKS
SIOUX FALLS    CLOUDY     6   1  80 W3        30.57S
HURON          CLOUDY     2  -3  80 N6        30.60R WCI  -9
CHAMBERLAIN    CLOUDY     6   1  81 E6        30.53S WCI  -5
MITCHELL       CLOUDY     4  -2  76 NE6       30.61R WCI  -7
YANKTON        CLOUDY     5   0  78 CALM      30.58F
$$

ABBREVIATIONS USED IN REMARKS
   TC - TEMPERATURE IN CELSIUS
  WCI - WIND CHILL INDEX
   HX - HEAT INDEX
  VSB - VISIBILITY




USA.gov is the U.S. government's official web portal to all federal, state and local government web resources and services.